Time,TemperatureF,DewpointF,PressureIn,WindDirection,WindDirectionDegrees,WindSpeedMPH,WindSpeedGustMPH,Humidity,HourlyPrecipIn,Conditions,Clouds,dailyrainin,SolarRadiationWatts/m^2,SoftwareType,DateUTC
2013-05-24 00:00:00,75.1,71.3,29.98,SSW,207,0.0,0.0,88,0.00,,---,0.00,0.00,VWS V14.00,2013-05-24 05:00:00,
2013-05-24 00:03:00,74.9,71.1,29.98,South,187,1.0,2.0,88,0.00,,---,0.00,0.00,VWS V14.00,2013-05-24 05:03:00,
2013-05-24 00:07:00,74.9,71.1,29.98,South,187,2.0,3.0,88,0.00,,---,0.00,0.00,VWS V14.00,2013-05-24 05:07:00,
2013-05-24 00:11:00,75.1,71.3,29.98,SSE,148,3.0,5.0,88,0.00,,---,0.00,0.00,VWS V14.00,2013-05-24 05:11:00,
2013-05-24 00:15:00,75.2,71.4,29.98,SSE,150,1.0,5.0,88,0.00,,---,0.00,0.00,VWS V14.00,2013-05-24 05:15:00,
2013-05-24 00:19:00,75.3,71.2,29.98,SSE,152,0.0,5.0,87,0.00,,---,0.00,0.00,VWS V14.00,2013-05-24 05:19:00,
2013-05-24 00:23:00,75.3,71.2,29.98,SSE,157,2.0,5.0,87,0.00,,---,0.00,0.00,VWS V14.00,2013-05-24 05:23:00,
2013-05-24 00:27:00,75.4,71.3,29.98,SSE,159,1.0,5.0,87,0.00,,---,0.00,0.00,VWS V14.00,2013-05-24 05:27:00,
2013-05-24 00:30:00,75.3,70.8,29.98,SSE,159,2.0,5.0,86,0.00,,---,0.00,0.00,VWS V14.00,2013-05-24 05:30:00,
2013-05-24 00:31:00,75.2,71.1,29.98,SSE,159,3.0,3.0,87,0.00,,---,0.00,0.00,VWS V14.00,2013-05-24 05:31:00,
2013-05-24 00:35:00,75.2,71.1,29.98,SSE,159,3.0,4.0,87,0.00,,---,0.00,0.00,VWS V14.00,2013-05-24 05:35:00,
2013-05-24 00:39:00,75.1,71.0,29.98,SE,136,3.0,4.0,87,0.00,,---,0.00,0.00,VWS V14.00,2013-05-24 05:39:00,
2013-05-24 00:43:00,75.2,71.1,29.98,SE,145,3.0,4.0,87,0.00,,---,0.00,0.00,VWS V14.00,2013-05-24 05:43:00,
2013-05-24 00:47:00,75.2,70.7,29.98,SE,145,0.0,4.0,86,0.00,,---,0.00,0.00,VWS V14.00,2013-05-24 05:47:00,
2013-05-24 00:51:00,75.3,70.8,29.98,SE,130,2.0,4.0,86,0.00,,---,0.00,0.00,VWS V14.00,2013-05-24 05:51:00,
2013-05-24 00:55:00,75.4,70.9,29.98,SE,130,0.0,4.0,86,0.00,,---,0.00,0.00,VWS V14.00,2013-05-24 05:55:00,
2013-05-24 00:59:00,75.5,70.7,29.99,SE,130,2.0,4.0,85,0.00,,---,0.00,0.00,VWS V14.00,2013-05-24 05:59:00,
2013-05-24 01:00:00,75.5,70.7,29.99,SE,130,0.0,4.0,85,0.00,,---,0.00,0.00,VWS V14.00,2013-05-24 06:00:00,
2013-05-24 01:03:00,75.7,71.2,29.99,SE,129,0.0,2.0,86,0.00,,---,0.00,0.00,VWS V14.00,2013-05-24 06:03:00,
2013-05-24 01:07:00,75.6,71.5,29.99,SE,130,0.0,2.0,87,0.00,,---,0.00,0.00,VWS V14.00,2013-05-24 06:07:00,
2013-05-24 01:11:00,75.2,71.4,29.99,ESE,105,0.0,3.0,88,0.00,,---,0.00,0.00,VWS V14.00,2013-05-24 06:11:00,
2013-05-24 01:15:00,74.8,71.0,29.99,East,93,1.0,3.0,88,0.00,,---,0.00,0.00,VWS V14.00,2013-05-24 06:15:00,
2013-05-24 01:19:00,74.6,71.2,29.99,ESE,115,0.0,3.0,89,0.00,,---,0.00,0.00,VWS V14.00,2013-05-24 06:19:00,
2013-05-24 01:23:00,74.6,71.2,29.99,ESE,115,0.0,3.0,89,0.00,,---,0.00,0.00,VWS V14.00,2013-05-24 06:23:00,
2013-05-24 01:27:00,74.5,71.1,29.99,ESE,115,0.0,3.0,89,0.00,,---,0.00,0.00,VWS V14.00,2013-05-24 06:27:00,
2013-05-24 01:30:00,74.5,71.1,29.98,East,98,0.0,3.0,89,0.00,,---,0.00,0.00,VWS V14.00,2013-05-24 06:30:00,
2013-05-24 01:31:00,74.4,70.9,29.98,East,98,0.0,0.0,89,0.00,,---,0.00,0.00,VWS V14.00,2013-05-24 06:31:00,
2013-05-24 01:36:00,74.4,71.3,29.98,East,97,0.0,0.0,90,0.00,,---,0.00,0.00,VWS V14.00,2013-05-24 06:36:00,
2013-05-24 01:40:00,74.4,71.3,29.98,East,92,0.0,1.0,90,0.00,,---,0.00,0.00,VWS V14.00,2013-05-24 06:40:00,
2013-05-24 01:44:00,74.5,71.4,29.98,East,93,0.0,1.0,90,0.00,,---,0.00,0.00,VWS V14.00,2013-05-24 06:44:00,
2013-05-24 01:48:00,74.6,71.2,29.98,East,90,0.0,1.0,89,0.00,,---,0.00,0.00,VWS V14.00,2013-05-24 06:48:00,
2013-05-24 01:52:00,74.7,71.2,29.98,ENE,76,0.0,1.0,89,0.00,,---,0.00,0.00,VWS V14.00,2013-05-24 06:52:00,
2013-05-24 01:56:00,74.7,71.2,29.98,East,80,0.0,1.0,89,0.00,,---,0.00,0.00,VWS V14.00,2013-05-24 06:56:00,
2013-05-24 02:00:00,74.8,71.3,29.98,ENE,71,0.0,1.0,89,0.00,,---,0.00,0.00,VWS V14.00,2013-05-24 07:00:00,
2013-05-24 02:04:00,74.8,71.3,29.98,ENE,71,2.0,2.0,89,0.00,,---,0.00,0.00,VWS V14.00,2013-05-24 07:04:00,
2013-05-24 02:08:00,74.7,70.9,29.98,East,94,0.0,2.0,88,0.00,,---,0.00,0.00,VWS V14.00,2013-05-24 07:08:00,
2013-05-24 02:12:00,74.6,71.2,29.98,East,87,0.0,2.0,89,0.00,,---,0.00,0.00,VWS V14.00,2013-05-24 07:12:00,
2013-05-24 02:16:00,74.5,71.1,29.98,East,86,1.0,2.0,89,0.00,,---,0.00,0.00,VWS V14.00,2013-05-24 07:16:00,
2013-05-24 02:20:00,74.4,70.6,29.98,East,86,0.0,2.0,88,0.00,,---,0.00,0.00,VWS V14.00,2013-05-24 07:20:00,
2013-05-24 02:24:00,74.3,70.8,29.98,East,82,0.0,2.0,89,0.00,,---,0.00,0.00,VWS V14.00,2013-05-24 07:24:00,
2013-05-24 02:28:00,74.3,70.8,29.98,East,82,0.0,2.0,89,0.00,,---,0.00,0.00,VWS V14.00,2013-05-24 07:28:00,
2013-05-24 02:30:00,74.2,70.8,29.98,East,85,0.0,2.0,89,0.00,,---,0.00,0.00,VWS V14.00,2013-05-24 07:30:00,
2013-05-24 02:32:00,74.1,70.7,29.98,East,79,0.0,1.0,89,0.00,,---,0.00,0.00,VWS V14.00,2013-05-24 07:32:00,
2013-05-24 02:36:00,74.1,70.7,29.98,East,84,0.0,1.0,89,0.00,,---,0.00,0.00,VWS V14.00,2013-05-24 07:36:00,
2013-05-24 03:22:00,73.4,70.3,29.98,ESE,111,3.0,5.0,90,0.00,,---,0.00,0.00,VWS V14.00,2013-05-24 08:22:00,
2013-05-24 03:26:00,73.5,70.4,29.98,ESE,112,1.0,5.0,90,0.00,,---,0.00,0.00,VWS V14.00,2013-05-24 08:26:00,
2013-05-24 03:30:00,73.5,70.4,29.98,ESE,106,1.0,5.0,90,0.00,,---,0.00,0.00,VWS V14.00,2013-05-24 08:30:00,
2013-05-24 03:34:00,73.6,70.5,29.98,ESE,107,1.0,3.0,90,0.00,,---,0.00,0.00,VWS V14.00,2013-05-24 08:34:00,
2013-05-24 03:38:00,73.7,70.6,29.98,ESE,104,1.0,3.0,90,0.00,,---,0.00,0.00,VWS V14.00,2013-05-24 08:38:00,
2013-05-24 03:42:00,73.6,70.2,29.98,ESE,106,1.0,3.0,89,0.00,,---,0.00,0.00,VWS V14.00,2013-05-24 08:42:00,
2013-05-24 03:46:00,73.6,70.5,29.99,East,96,0.0,3.0,90,0.00,,---,0.00,0.00,VWS V14.00,2013-05-24 08:46:00,
2013-05-24 03:50:00,73.5,70.4,29.99,East,94,0.0,3.0,90,0.00,,---,0.00,0.00,VWS V14.00,2013-05-24 08:50:00,
2013-05-24 03:54:00,73.4,70.3,29.99,ESE,105,0.0,3.0,90,0.00,,---,0.00,0.00,VWS V14.00,2013-05-24 08:54:00,
2013-05-24 03:58:00,73.2,70.1,29.99,ESE,113,0.0,3.0,90,0.00,,---,0.00,0.00,VWS V14.00,2013-05-24 08:58:00,
2013-05-24 04:00:00,73.1,70.0,30.00,ESE,113,0.0,3.0,90,0.00,,---,0.00,0.00,VWS V14.00,2013-05-24 09:00:00,
2013-05-24 04:02:00,73.1,70.0,30.00,ESE,113,0.0,0.0,90,0.00,,---,0.00,0.00,VWS V14.00,2013-05-24 09:02:00,
2013-05-24 04:06:00,73.0,69.9,30.00,ESE,114,2.0,2.0,90,0.00,,---,0.00,0.00,VWS V14.00,2013-05-24 09:06:00,
2013-05-24 04:10:00,72.9,69.8,30.00,ESE,114,0.0,2.0,90,0.00,,---,0.00,0.00,VWS V14.00,2013-05-24 09:10:00,
2013-05-24 04:14:00,72.9,69.8,30.01,ESE,114,0.0,2.0,90,0.00,,---,0.00,0.00,VWS V14.00,2013-05-24 09:14:00,
2013-05-24 04:18:00,73.0,70.2,30.01,ESE,114,0.0,2.0,91,0.00,,---,0.00,0.00,VWS V14.00,2013-05-24 09:18:00,
2013-05-24 04:22:00,73.0,70.2,30.01,ESE,114,1.0,2.0,91,0.00,,---,0.00,0.00,VWS V14.00,2013-05-24 09:22:00,
2013-05-24 04:26:00,73.0,70.2,30.01,ESE,115,1.0,3.0,91,0.00,,---,0.00,0.00,VWS V14.00,2013-05-24 09:26:00,
2013-05-24 04:30:00,72.9,70.1,30.01,ESE,118,0.0,3.0,91,0.00,,---,0.00,0.00,VWS V14.00,2013-05-24 09:30:00,
2013-05-24 04:34:00,72.9,70.1,30.01,ESE,118,0.0,0.0,91,0.00,,---,0.00,0.00,VWS V14.00,2013-05-24 09:34:00,
2013-05-24 04:38:00,72.9,70.1,30.01,ESE,118,0.0,0.0,91,0.00,,---,0.00,0.00,VWS V14.00,2013-05-24 09:38:00,
2013-05-24 04:43:00,72.9,70.1,30.01,ESE,118,0.0,0.0,91,0.00,,---,0.00,0.00,VWS V14.00,2013-05-24 09:43:00,
2013-05-24 04:46:00,72.8,70.0,30.01,ESE,118,0.0,0.0,91,0.00,,---,0.00,0.00,VWS V14.00,2013-05-24 09:46:00,
2013-05-24 04:51:00,72.8,70.0,30.01,ESE,118,0.0,0.0,91,0.00,,---,0.00,0.00,VWS V14.00,2013-05-24 09:51:00,
2013-05-24 04:55:00,72.9,70.4,30.01,ESE,105,0.0,1.0,92,0.00,,---,0.00,0.00,VWS V14.00,2013-05-24 09:55:00,
2013-05-24 04:59:00,72.9,70.1,30.01,ESE,105,0.0,1.0,91,0.00,,---,0.00,0.00,VWS V14.00,2013-05-24 09:59:00,
2013-05-24 05:00:00,72.9,70.1,30.01,ESE,105,0.0,1.0,91,0.00,,---,0.00,0.00,VWS V14.00,2013-05-24 10:00:00,
2013-05-24 05:03:00,72.8,70.0,30.01,ESE,105,0.0,1.0,91,0.00,,---,0.00,0.00,VWS V14.00,2013-05-24 10:03:00,
2013-05-24 05:07:00,72.7,69.9,30.01,ESE,105,0.0,1.0,91,0.00,,---,0.00,0.00,VWS V14.00,2013-05-24 10:07:00,
2013-05-24 05:11:00,72.7,69.9,30.01,ESE,105,0.0,1.0,91,0.00,,---,0.00,0.00,VWS V14.00,2013-05-24 10:11:00,
2013-05-24 05:15:00,72.6,69.8,30.01,ESE,105,0.0,1.0,91,0.00,,---,0.00,0.00,VWS V14.00,2013-05-24 10:15:00,
2013-05-24 05:19:00,72.5,69.7,30.01,ESE,105,0.0,1.0,91,0.00,,---,0.00,0.00,VWS V14.00,2013-05-24 10:19:00,
2013-05-24 05:23:00,72.5,70.1,30.01,ESE,105,0.0,1.0,92,0.00,,---,0.00,0.00,VWS V14.00,2013-05-24 10:23:00,
2013-05-24 05:27:00,72.5,70.1,30.01,ESE,105,0.0,1.0,92,0.00,,---,0.00,0.00,VWS V14.00,2013-05-24 10:27:00,
2013-05-24 05:30:00,72.5,70.1,30.01,ESE,105,0.0,1.0,92,0.00,,---,0.00,0.00,VWS V14.00,2013-05-24 10:30:00,
2013-05-24 05:31:00,72.5,70.1,30.01,ESE,105,0.0,0.0,92,0.00,,---,0.00,0.00,VWS V14.00,2013-05-24 10:31:00,
2013-05-24 05:35:00,72.5,70.1,30.01,ESE,105,0.0,0.0,92,0.00,,---,0.00,0.00,VWS V14.00,2013-05-24 10:35:00,
2013-05-24 05:39:00,72.5,70.1,30.01,ESE,105,0.0,0.0,92,0.00,,---,0.00,0.00,VWS V14.00,2013-05-24 10:39:00,
2013-05-24 05:43:00,72.5,70.1,30.01,ESE,105,0.0,0.0,92,0.00,,---,0.00,0.00,VWS V14.00,2013-05-24 10:43:00,
2013-05-24 05:47:00,72.6,70.2,30.02,ESE,105,0.0,0.0,92,0.00,,---,0.00,0.00,VWS V14.00,2013-05-24 10:47:00,
2013-05-24 05:51:00,72.6,70.2,30.02,ESE,119,0.0,0.0,92,0.00,,---,0.00,0.00,VWS V14.00,2013-05-24 10:51:00,
2013-05-24 05:55:00,72.7,70.2,30.02,ESE,119,0.0,0.0,92,0.00,,---,0.00,0.00,VWS V14.00,2013-05-24 10:55:00,
2013-05-24 05:59:00,72.6,70.2,30.03,SE,124,0.0,0.0,92,0.00,,---,0.00,0.00,VWS V14.00,2013-05-24 10:59:00,
2013-05-24 06:00:00,72.6,70.2,30.03,SE,124,0.0,0.0,92,0.00,,---,0.00,0.00,VWS V14.00,2013-05-24 11:00:00,
2013-05-24 06:03:00,72.5,70.1,30.03,East,96,0.0,0.0,92,0.00,,---,0.00,5.00,VWS V14.00,2013-05-24 11:03:00,
2013-05-24 06:07:00,72.4,69.9,30.03,East,96,0.0,0.0,92,0.00,,---,0.00,7.00,VWS V14.00,2013-05-24 11:07:00,
2013-05-24 06:11:00,72.4,69.9,30.03,NNW,347,0.0,0.0,92,0.00,,---,0.00,9.00,VWS V14.00,2013-05-24 11:11:00,
2013-05-24 06:15:00,72.4,69.9,30.04,NNW,347,0.0,0.0,92,0.00,,---,0.00,11.00,VWS V14.00,2013-05-24 11:15:00,
2013-05-24 06:19:00,72.4,69.9,30.04,SSW,195,0.0,0.0,92,0.00,,---,0.00,11.00,VWS V14.00,2013-05-24 11:19:00,
2013-05-24 06:23:00,72.4,69.9,30.04,SSW,195,0.0,0.0,92,0.00,,---,0.00,14.00,VWS V14.00,2013-05-24 11:23:00,
2013-05-24 06:27:00,72.4,69.9,30.04,SSW,195,0.0,0.0,92,0.00,,---,0.00,16.00,VWS V14.00,2013-05-24 11:27:00,
2013-05-24 06:30:00,72.5,70.1,30.04,SSW,195,0.0,0.0,92,0.00,,---,0.00,21.00,VWS V14.00,2013-05-24 11:30:00,
2013-05-24 06:31:00,72.5,70.1,30.04,SSW,195,0.0,0.0,92,0.00,,---,0.00,23.00,VWS V14.00,2013-05-24 11:31:00,
2013-05-24 06:35:00,72.6,70.2,30.04,SSW,195,0.0,0.0,92,0.00,,---,0.00,28.00,VWS V14.00,2013-05-24 11:35:00,
2013-05-24 06:39:00,72.7,70.2,30.04,SE,134,0.0,0.0,92,0.00,,---,0.00,33.00,VWS V14.00,2013-05-24 11:39:00,
2013-05-24 06:44:00,72.8,70.3,30.04,NNE,22,0.0,0.0,92,0.00,,---,0.00,33.00,VWS V14.00,2013-05-24 11:44:00,
2013-05-24 06:48:00,72.9,70.4,30.05,NNE,29,0.0,0.0,92,0.00,,---,0.00,35.00,VWS V14.00,2013-05-24 11:48:00,
2013-05-24 06:52:00,73.0,70.5,30.05,ENE,66,0.0,0.0,92,0.00,,---,0.00,46.00,VWS V14.00,2013-05-24 11:52:00,
2013-05-24 06:56:00,73.1,71.0,30.05,ENE,68,0.0,0.0,93,0.00,,---,0.00,49.00,VWS V14.00,2013-05-24 11:56:00,
2013-05-24 07:00:00,73.1,71.0,30.06,East,95,0.0,0.0,93,0.00,,---,0.00,54.00,VWS V14.00,2013-05-24 12:00:00,
2013-05-24 07:04:00,73.2,70.7,30.06,East,92,0.0,1.0,92,0.00,,---,0.00,70.00,VWS V14.00,2013-05-24 12:04:00,
2013-05-24 07:08:00,73.3,70.8,30.06,East,91,0.0,1.0,92,0.00,,---,0.00,90.00,VWS V14.00,2013-05-24 12:08:00,
2013-05-24 07:12:00,73.5,71.0,30.06,East,81,1.0,3.0,92,0.00,,---,0.00,125.00,VWS V14.00,2013-05-24 12:12:00,
2013-05-24 07:16:00,73.6,71.1,30.06,ENE,71,2.0,3.0,92,0.00,,---,0.00,137.00,VWS V14.00,2013-05-24 12:16:00,
2013-05-24 07:20:00,73.7,70.9,30.06,ENE,74,3.0,3.0,91,0.00,,---,0.00,134.00,VWS V14.00,2013-05-24 12:20:00,
2013-05-24 07:24:00,73.7,70.9,30.06,NE,39,2.0,3.0,91,0.00,,---,0.00,141.00,VWS V14.00,2013-05-24 12:24:00,
2013-05-24 07:28:00,73.7,70.9,30.06,East,88,1.0,3.0,91,0.00,,---,0.00,160.00,VWS V14.00,2013-05-24 12:28:00,
2013-05-24 07:30:00,73.8,71.0,30.07,East,84,1.0,3.0,91,0.00,,---,0.00,142.00,VWS V14.00,2013-05-24 12:30:00,
2013-05-24 07:32:00,73.8,71.0,30.07,East,82,0.0,0.0,91,0.00,,---,0.00,144.00,VWS V14.00,2013-05-24 12:32:00,
2013-05-24 07:36:00,73.9,71.1,30.07,ENE,72,0.0,2.0,91,0.00,,---,0.00,158.00,VWS V14.00,2013-05-24 12:36:00,
2013-05-24 07:40:00,74.0,71.2,30.07,ENE,78,0.0,2.0,91,0.00,,---,0.00,162.00,VWS V14.00,2013-05-24 12:40:00,
2013-05-24 07:44:00,74.2,71.4,30.07,East,80,1.0,3.0,91,0.00,,---,0.00,197.00,VWS V14.00,2013-05-24 12:44:00,
2013-05-24 07:48:00,74.2,71.1,30.07,East,89,1.0,3.0,90,0.00,,---,0.00,218.00,VWS V14.00,2013-05-24 12:48:00,
2013-05-24 07:52:00,74.3,71.5,30.07,East,88,2.0,3.0,91,0.00,,---,0.00,153.00,VWS V14.00,2013-05-24 12:52:00,
2013-05-24 07:56:00,74.3,71.2,30.07,ENE,74,0.0,3.0,90,0.00,,---,0.00,139.00,VWS V14.00,2013-05-24 12:56:00,
2013-05-24 08:00:00,74.3,71.5,30.08,East,83,0.0,3.0,91,0.00,,---,0.00,139.00,VWS V14.00,2013-05-24 13:00:00,
2013-05-24 08:04:00,74.4,71.3,30.08,East,94,0.0,2.0,90,0.00,,---,0.00,135.00,VWS V14.00,2013-05-24 13:04:00,
2013-05-24 08:08:00,74.4,71.6,30.08,ENE,78,0.0,2.0,91,0.00,,---,0.00,111.00,VWS V14.00,2013-05-24 13:08:00,
2013-05-24 08:12:00,74.4,71.3,30.08,East,90,0.0,2.0,90,0.00,,---,0.00,116.00,VWS V14.00,2013-05-24 13:12:00,
2013-05-24 08:16:00,74.5,71.7,30.09,East,96,0.0,2.0,91,0.00,,---,0.00,149.00,VWS V14.00,2013-05-24 13:16:00,
2013-05-24 08:20:00,74.8,71.7,30.09,East,101,2.0,3.0,90,0.00,,---,0.00,236.00,VWS V14.00,2013-05-24 13:20:00,
2013-05-24 08:24:00,75.1,72.0,30.09,East,96,2.0,3.0,90,0.00,,---,0.00,221.00,VWS V14.00,2013-05-24 13:24:00,
2013-05-24 08:28:00,75.3,72.2,30.09,ENE,78,2.0,3.0,90,0.00,,---,0.00,246.00,VWS V14.00,2013-05-24 13:28:00,
2013-05-24 08:30:00,75.3,72.2,30.10,ENE,76,2.0,3.0,90,0.00,,---,0.00,246.00,VWS V14.00,2013-05-24 13:30:00,
2013-05-24 08:32:00,75.2,71.7,30.10,East,82,3.0,3.0,89,0.00,,---,0.00,186.00,VWS V14.00,2013-05-24 13:32:00,
2013-05-24 08:36:00,75.2,71.7,30.10,ENE,70,1.0,3.0,89,0.00,,---,0.00,221.00,VWS V14.00,2013-05-24 13:36:00,
2013-05-24 08:40:00,75.2,71.7,30.10,East,82,2.0,3.0,89,0.00,,---,0.00,188.00,VWS V14.00,2013-05-24 13:40:00,
2013-05-24 08:44:00,75.2,71.7,30.10,ENE,78,2.0,4.0,89,0.00,,---,0.00,223.00,VWS V14.00,2013-05-24 13:44:00,
2013-05-24 08:49:00,75.4,71.9,30.10,ENE,73,2.0,4.0,89,0.00,,---,0.00,316.00,VWS V14.00,2013-05-24 13:49:00,
2013-05-24 08:53:00,75.6,72.1,30.10,ENE,74,3.0,4.0,89,0.00,,---,0.00,292.00,VWS V14.00,2013-05-24 13:53:00,
2013-05-24 08:57:00,75.8,72.3,30.10,ENE,70,1.0,4.0,89,0.00,,---,0.00,278.00,VWS V14.00,2013-05-24 13:57:00,
2013-05-24 09:00:00,75.8,72.3,30.10,East,88,3.0,4.0,89,0.00,,---,0.00,322.00,VWS V14.00,2013-05-24 14:00:00,
2013-05-24 09:01:00,75.8,72.3,30.10,ENE,69,3.0,3.0,89,0.00,,---,0.00,330.00,VWS V14.00,2013-05-24 14:01:00,
2013-05-24 09:05:00,76.1,72.3,30.10,ESE,109,1.0,3.0,88,0.00,,---,0.00,410.00,VWS V14.00,2013-05-24 14:05:00,
2013-05-24 09:09:00,76.6,72.8,30.10,East,97,2.0,3.0,88,0.00,,---,0.00,406.00,VWS V14.00,2013-05-24 14:09:00,
2013-05-24 09:13:00,76.7,72.9,30.10,East,98,1.0,4.0,88,0.00,,---,0.00,455.00,VWS V14.00,2013-05-24 14:13:00,
2013-05-24 09:17:00,76.9,72.7,30.11,ENE,76,2.0,4.0,87,0.00,,---,0.00,318.00,VWS V14.00,2013-05-24 14:17:00,
2013-05-24 09:21:00,77.2,73.0,30.11,ENE,72,3.0,4.0,87,0.00,,---,0.00,519.00,VWS V14.00,2013-05-24 14:21:00,
2013-05-24 09:25:00,77.5,73.0,30.11,ESE,109,5.0,5.0,86,0.00,,---,0.00,341.00,VWS V14.00,2013-05-24 14:25:00,
2013-05-24 09:29:00,77.2,72.7,30.11,ESE,108,2.0,5.0,86,0.00,,---,0.00,253.00,VWS V14.00,2013-05-24 14:29:00,
2013-05-24 09:30:00,77.0,72.8,30.12,East,82,3.0,5.0,87,0.00,,---,0.00,262.00,VWS V14.00,2013-05-24 14:30:00,
2013-05-24 09:33:00,76.9,72.7,30.12,East,92,3.0,3.0,87,0.00,,---,0.00,346.00,VWS V14.00,2013-05-24 14:33:00,
2013-05-24 09:37:00,76.8,72.6,30.12,East,86,3.0,5.0,87,0.00,,---,0.00,415.00,VWS V14.00,2013-05-24 14:37:00,
2013-05-24 09:41:00,77.0,72.8,30.12,ENE,74,3.0,5.0,87,0.00,,---,0.00,490.00,VWS V14.00,2013-05-24 14:41:00,
2013-05-24 09:45:00,77.2,72.7,30.11,East,86,1.0,5.0,86,0.00,,---,0.00,432.00,VWS V14.00,2013-05-24 14:45:00,
2013-05-24 09:49:00,77.3,72.8,30.11,ENE,67,1.0,5.0,86,0.00,,---,0.00,577.00,VWS V14.00,2013-05-24 14:49:00,
2013-05-24 09:53:00,77.2,72.7,30.11,ENE,78,2.0,5.0,86,0.00,,---,0.00,359.00,VWS V14.00,2013-05-24 14:53:00,
2013-05-24 09:57:00,76.9,72.7,30.11,East,82,1.0,5.0,87,0.00,,---,0.00,316.00,VWS V14.00,2013-05-24 14:57:00,
2013-05-24 10:00:00,76.9,72.4,30.11,ENE,75,4.0,5.0,86,0.00,,---,0.00,258.00,VWS V14.00,2013-05-24 15:00:00,
2013-05-24 10:01:00,76.8,72.6,30.11,ENE,76,4.0,4.0,87,0.00,,---,0.00,269.00,VWS V14.00,2013-05-24 15:01:00,
2013-05-24 10:05:00,77.2,72.7,30.11,ENE,75,4.0,5.0,86,0.00,,---,0.00,301.00,VWS V14.00,2013-05-24 15:05:00,
2013-05-24 10:09:00,77.3,72.4,30.11,East,95,3.0,5.0,85,0.00,,---,0.00,629.00,VWS V14.00,2013-05-24 15:09:00,
2013-05-24 10:13:00,77.3,72.4,30.11,ENE,78,3.0,5.0,85,0.00,,---,0.00,320.00,VWS V14.00,2013-05-24 15:13:00,
2013-05-24 10:17:00,77.3,72.8,30.12,ENE,67,2.0,5.0,86,0.00,,---,0.00,318.00,VWS V14.00,2013-05-24 15:17:00,
2013-05-24 10:21:00,77.2,72.7,30.12,ENE,78,2.0,5.0,86,0.00,,---,0.00,246.00,VWS V14.00,2013-05-24 15:21:00,
2013-05-24 10:25:00,77.1,72.6,30.12,ENE,76,1.0,5.0,86,0.00,,---,0.00,248.00,VWS V14.00,2013-05-24 15:25:00,
2013-05-24 10:29:00,77.6,73.1,30.12,ESE,104,2.0,5.0,86,0.00,,---,0.00,318.00,VWS V14.00,2013-05-24 15:29:00,
2013-05-24 10:30:00,77.7,73.2,30.12,ENE,74,2.0,5.0,86,0.00,,---,0.00,376.00,VWS V14.00,2013-05-24 15:30:00,
2013-05-24 10:33:00,77.8,72.9,30.12,East,88,1.0,4.0,85,0.00,,---,0.00,429.00,VWS V14.00,2013-05-24 15:33:00,
2013-05-24 10:37:00,78.0,73.1,30.12,East,101,2.0,4.0,85,0.00,,---,0.00,401.00,VWS V14.00,2013-05-24 15:37:00,
2013-05-24 10:41:00,78.5,73.3,30.12,ESE,109,1.0,4.0,84,0.00,,---,0.00,751.00,VWS V14.00,2013-05-24 15:41:00,
2013-05-24 10:45:00,78.9,72.9,30.12,ENE,75,1.0,4.0,82,0.00,,---,0.00,735.00,VWS V14.00,2013-05-24 15:45:00,
2013-05-24 10:49:00,79.1,73.5,30.12,ESE,110,1.0,4.0,83,0.00,,---,0.00,768.00,VWS V14.00,2013-05-24 15:49:00,
2013-05-24 10:53:00,79.3,73.3,30.12,ENE,74,3.0,4.0,82,0.00,,---,0.00,719.00,VWS V14.00,2013-05-24 15:53:00,
2013-05-24 10:57:00,79.5,73.5,30.12,ENE,76,3.0,4.0,82,0.00,,---,0.00,519.00,VWS V14.00,2013-05-24 15:57:00,
2013-05-24 11:00:00,79.8,73.8,30.11,East,94,0.0,4.0,82,0.00,,---,0.00,853.00,VWS V14.00,2013-05-24 16:00:00,
2013-05-24 11:01:00,79.8,73.8,30.11,ENE,74,3.0,3.0,82,0.00,,---,0.00,557.00,VWS V14.00,2013-05-24 16:01:00,
2013-05-24 11:06:00,79.7,73.4,30.11,East,97,2.0,3.0,81,0.00,,---,0.00,891.00,VWS V14.00,2013-05-24 16:06:00,
2013-05-24 11:10:00,79.7,73.0,30.11,ESE,115,1.0,4.0,80,0.00,,---,0.00,406.00,VWS V14.00,2013-05-24 16:10:00,
2013-05-24 11:14:00,79.6,73.3,30.11,ENE,76,3.0,4.0,81,0.00,,---,0.00,406.00,VWS V14.00,2013-05-24 16:14:00,
2013-05-24 11:18:00,79.5,73.2,30.11,ENE,71,2.0,4.0,81,0.00,,---,0.00,281.00,VWS V14.00,2013-05-24 16:18:00,
2013-05-24 11:22:00,78.9,72.6,30.11,ENE,77,0.0,4.0,81,0.00,,---,0.00,403.00,VWS V14.00,2013-05-24 16:22:00,
2013-05-24 11:26:00,79.4,73.8,30.11,ESE,117,3.0,6.0,83,0.00,,---,0.00,814.00,VWS V14.00,2013-05-24 16:26:00,
2013-05-24 11:30:00,80.2,73.5,30.12,SE,133,2.0,8.0,80,0.00,,---,0.00,849.00,VWS V14.00,2013-05-24 16:30:00,
2013-05-24 11:34:00,80.0,73.3,30.12,East,90,1.0,5.0,80,0.00,,---,0.00,367.00,VWS V14.00,2013-05-24 16:34:00,
2013-05-24 11:38:00,79.9,73.2,30.12,ESE,111,4.0,6.0,80,0.00,,---,0.00,341.00,VWS V14.00,2013-05-24 16:38:00,
2013-05-24 11:42:00,80.1,73.8,30.12,ESE,111,0.0,6.0,81,0.00,,---,0.00,418.00,VWS V14.00,2013-05-24 16:42:00,
2013-05-24 11:46:00,80.7,73.6,30.12,ESE,105,0.0,6.0,79,0.00,,---,0.00,332.00,VWS V14.00,2013-05-24 16:46:00,
2013-05-24 11:50:00,80.3,73.6,30.12,East,98,0.0,6.0,80,0.00,,---,0.00,265.00,VWS V14.00,2013-05-24 16:50:00,
2013-05-24 11:54:00,80.0,73.7,30.12,SE,144,3.0,6.0,81,0.00,,---,0.00,186.00,VWS V14.00,2013-05-24 16:54:00,
2013-05-24 11:58:00,80.0,74.0,30.12,SE,144,1.0,6.0,82,0.00,,---,0.00,297.00,VWS V14.00,2013-05-24 16:58:00,
2013-05-24 12:00:00,80.2,73.8,30.12,SE,136,4.0,6.0,81,0.00,,---,0.00,297.00,VWS V14.00,2013-05-24 17:00:00,
2013-05-24 12:02:00,80.2,73.5,30.12,ESE,102,3.0,4.0,80,0.00,,---,0.00,197.00,VWS V14.00,2013-05-24 17:02:00,
2013-05-24 12:06:00,80.1,73.4,30.12,SE,140,3.0,5.0,80,0.00,,---,0.00,265.00,VWS V14.00,2013-05-24 17:06:00,
2013-05-24 12:10:00,80.1,73.0,30.12,SSE,149,5.0,5.0,79,0.00,,---,0.00,265.00,VWS V14.00,2013-05-24 17:10:00,
2013-05-24 12:14:00,80.3,73.6,30.12,ESE,114,3.0,5.0,80,0.00,,---,0.00,371.00,VWS V14.00,2013-05-24 17:14:00,
2013-05-24 12:18:00,81.4,75.0,30.12,SE,133,0.0,5.0,81,0.00,,---,0.00,889.00,VWS V14.00,2013-05-24 17:18:00,
2013-05-24 12:22:00,82.3,75.1,30.12,ESE,113,1.0,5.0,79,0.00,,---,0.00,881.00,VWS V14.00,2013-05-24 17:22:00,
2013-05-24 12:26:00,82.1,74.6,30.12,ENE,74,0.0,5.0,78,0.00,,---,0.00,868.00,VWS V14.00,2013-05-24 17:26:00,
2013-05-24 12:30:00,82.3,74.0,30.11,ESE,123,3.0,5.0,76,0.00,,---,0.00,898.00,VWS V14.00,2013-05-24 17:30:00,
2013-05-24 12:34:00,82.3,75.1,30.11,NE,45,1.0,4.0,79,0.00,,---,0.00,874.00,VWS V14.00,2013-05-24 17:34:00,
2013-05-24 12:38:00,82.4,74.1,30.11,ENE,74,2.0,4.0,76,0.00,,---,0.00,789.00,VWS V14.00,2013-05-24 17:38:00,
2013-05-24 12:42:00,82.0,73.7,30.11,ENE,78,0.0,4.0,76,0.00,,---,0.00,278.00,VWS V14.00,2013-05-24 17:42:00,
2013-05-24 12:46:00,81.6,74.8,30.10,ESE,109,2.0,4.0,80,0.00,,---,0.00,381.00,VWS V14.00,2013-05-24 17:46:00,
2013-05-24 12:50:00,82.0,74.1,30.10,East,84,1.0,4.0,77,0.00,,---,0.00,754.00,VWS V14.00,2013-05-24 17:50:00,
2013-05-24 12:54:00,82.2,74.7,30.10,East,98,0.0,4.0,78,0.00,,---,0.00,475.00,VWS V14.00,2013-05-24 17:54:00,
2013-05-24 12:58:00,83.0,75.1,30.10,East,79,2.0,4.0,77,0.00,,---,0.00,942.00,VWS V14.00,2013-05-24 17:58:00,
2013-05-24 13:00:00,83.2,73.7,30.10,ENE,77,4.0,4.0,73,0.00,,---,0.00,942.00,VWS V14.00,2013-05-24 18:00:00,
2013-05-24 13:02:00,82.9,74.2,30.10,ESE,106,1.0,4.0,75,0.00,,---,0.00,417.00,VWS V14.00,2013-05-24 18:02:00,
2013-05-24 13:06:00,82.7,73.6,30.10,ENE,76,2.0,4.0,74,0.00,,---,0.00,408.00,VWS V14.00,2013-05-24 18:06:00,
2013-05-24 13:10:00,82.7,74.4,30.10,East,95,1.0,4.0,76,0.00,,---,0.00,394.00,VWS V14.00,2013-05-24 18:10:00,
2013-05-24 13:15:00,83.3,74.6,30.10,ENE,76,4.0,4.0,75,0.00,,---,0.00,831.00,VWS V14.00,2013-05-24 18:15:00,
2013-05-24 13:19:00,83.2,74.1,30.10,East,100,2.0,6.0,74,0.00,,---,0.00,735.00,VWS V14.00,2013-05-24 18:19:00,
2013-05-24 13:23:00,82.7,74.4,30.10,East,96,1.0,6.0,76,0.00,,---,0.00,455.00,VWS V14.00,2013-05-24 18:23:00,
2013-05-24 13:27:00,82.3,74.0,30.10,East,97,1.0,6.0,76,0.00,,---,0.00,288.00,VWS V14.00,2013-05-24 18:27:00,
2013-05-24 13:30:00,81.9,73.6,30.09,ENE,65,2.0,6.0,76,0.00,,---,0.00,322.00,VWS V14.00,2013-05-24 18:30:00,
2013-05-24 13:31:00,82.0,73.7,30.09,East,83,3.0,3.0,76,0.00,,---,0.00,322.00,VWS V14.00,2013-05-24 18:31:00,
2013-05-24 13:35:00,82.9,74.9,30.09,East,83,4.0,4.0,77,0.00,,---,0.00,935.00,VWS V14.00,2013-05-24 18:35:00,
2013-05-24 13:39:00,83.5,74.8,30.09,ENE,75,3.0,4.0,75,0.00,,---,0.00,868.00,VWS V14.00,2013-05-24 18:39:00,
2013-05-24 13:43:00,83.7,74.9,30.09,ENE,78,2.0,4.0,75,0.00,,---,0.00,879.00,VWS V14.00,2013-05-24 18:43:00,
2013-05-24 13:47:00,83.1,74.0,30.08,ESE,105,1.0,4.0,74,0.00,,---,0.00,100.00,VWS V14.00,2013-05-24 18:47:00,
2013-05-24 13:51:00,83.0,73.9,30.08,ESE,109,1.0,5.0,74,0.00,,---,0.00,364.00,VWS V14.00,2013-05-24 18:51:00,
2013-05-24 13:55:00,83.8,74.6,30.08,ENE,78,4.0,5.0,74,0.00,,---,0.00,860.00,VWS V14.00,2013-05-24 18:55:00,
2013-05-24 13:59:00,83.5,74.3,30.08,East,101,3.0,5.0,74,0.00,,---,0.00,345.00,VWS V14.00,2013-05-24 18:59:00,
2013-05-24 14:00:00,83.5,73.9,30.08,East,82,2.0,5.0,73,0.00,,---,0.00,345.00,VWS V14.00,2013-05-24 19:00:00,
2013-05-24 14:03:00,83.8,74.6,30.08,ESE,109,2.0,4.0,74,0.00,,---,0.00,872.00,VWS V14.00,2013-05-24 19:03:00,
2013-05-24 14:07:00,83.6,74.0,30.08,East,80,2.0,5.0,73,0.00,,---,0.00,928.00,VWS V14.00,2013-05-24 19:07:00,
2013-05-24 14:11:00,83.6,74.4,30.08,East,101,1.0,5.0,74,0.00,,---,0.00,928.00,VWS V14.00,2013-05-24 19:11:00,
2013-05-24 14:15:00,83.6,73.6,30.07,East,91,2.0,5.0,72,0.00,,---,0.00,137.00,VWS V14.00,2013-05-24 19:15:00,
2013-05-24 14:19:00,83.5,73.9,30.07,ESE,111,6.0,9.0,73,0.00,,---,0.00,98.00,VWS V14.00,2013-05-24 19:19:00,
2013-05-24 14:23:00,84.2,74.6,30.07,ESE,103,6.0,9.0,73,0.00,,---,0.00,216.00,VWS V14.00,2013-05-24 19:23:00,
2013-05-24 14:27:00,84.7,74.3,30.07,ESE,121,5.0,9.0,71,0.00,,---,0.00,846.00,VWS V14.00,2013-05-24 19:27:00,
2013-05-24 14:30:00,85.1,74.2,30.07,ESE,105,3.0,9.0,70,0.00,,---,0.00,853.00,VWS V14.00,2013-05-24 19:30:00,
2013-05-24 14:31:00,85.1,74.2,30.07,ENE,72,1.0,3.0,70,0.00,,---,0.00,856.00,VWS V14.00,2013-05-24 19:31:00,
2013-05-24 14:35:00,85.0,74.6,30.07,ENE,66,3.0,6.0,71,0.00,,---,0.00,882.00,VWS V14.00,2013-05-24 19:35:00,
2013-05-24 14:39:00,84.6,74.6,30.07,East,100,2.0,6.0,72,0.00,,---,0.00,357.00,VWS V14.00,2013-05-24 19:39:00,
2013-05-24 14:43:00,84.2,74.6,30.07,ENE,74,3.0,6.0,73,0.00,,---,0.00,860.00,VWS V14.00,2013-05-24 19:43:00,
2013-05-24 14:47:00,84.1,74.1,30.06,East,99,2.0,6.0,72,0.00,,---,0.00,253.00,VWS V14.00,2013-05-24 19:47:00,
2013-05-24 14:51:00,83.6,73.2,30.06,ESE,106,2.0,6.0,71,0.00,,---,0.00,232.00,VWS V14.00,2013-05-24 19:51:00,
2013-05-24 14:55:00,84.2,74.6,30.06,East,88,2.0,6.0,73,0.00,,---,0.00,664.00,VWS V14.00,2013-05-24 19:55:00,
2013-05-24 14:59:00,84.4,74.4,30.06,ESE,115,4.0,6.0,72,0.00,,---,0.00,649.00,VWS V14.00,2013-05-24 19:59:00,
2013-05-24 15:00:00,84.8,74.8,30.06,ESE,111,4.0,6.0,72,0.00,,---,0.00,613.00,VWS V14.00,2013-05-24 20:00:00,
2013-05-24 15:03:00,84.8,74.4,30.06,ESE,110,2.0,6.0,71,0.00,,---,0.00,557.00,VWS V14.00,2013-05-24 20:03:00,
2013-05-24 15:07:00,84.4,74.0,30.06,ESE,106,4.0,6.0,71,0.00,,---,0.00,522.00,VWS V14.00,2013-05-24 20:07:00,
2013-05-24 15:11:00,84.3,74.3,30.06,SE,127,3.0,6.0,72,0.00,,---,0.00,548.00,VWS V14.00,2013-05-24 20:11:00,
2013-05-24 15:15:00,84.3,74.7,30.05,ESE,122,4.0,6.0,73,0.00,,---,0.00,554.00,VWS V14.00,2013-05-24 20:15:00,
2013-05-24 15:19:00,84.5,74.5,30.05,ESE,108,3.0,6.0,72,0.00,,---,0.00,343.00,VWS V14.00,2013-05-24 20:19:00,
2013-05-24 15:23:00,84.1,73.7,30.05,ESE,107,3.0,6.0,71,0.00,,---,0.00,294.00,VWS V14.00,2013-05-24 20:23:00,
2013-05-24 15:27:00,83.6,73.6,30.05,ESE,105,2.0,6.0,72,0.00,,---,0.00,204.00,VWS V14.00,2013-05-24 20:27:00,
2013-05-24 15:30:00,83.4,73.4,30.05,East,92,2.0,6.0,72,0.00,,---,0.00,213.00,VWS V14.00,2013-05-24 20:30:00,
2013-05-24 15:32:00,83.2,73.7,30.05,ENE,66,4.0,4.0,73,0.00,,---,0.00,197.00,VWS V14.00,2013-05-24 20:32:00,
2013-05-24 15:36:00,83.0,73.9,30.05,SE,132,3.0,6.0,74,0.00,,---,0.00,176.00,VWS V14.00,2013-05-24 20:36:00,
2013-05-24 15:40:00,83.0,73.9,30.05,SE,133,6.0,6.0,74,0.00,,---,0.00,214.00,VWS V14.00,2013-05-24 20:40:00,
2013-05-24 15:44:00,83.1,73.6,30.05,SE,134,3.0,6.0,73,0.00,,---,0.00,258.00,VWS V14.00,2013-05-24 20:44:00,
2013-05-24 15:48:00,83.2,74.1,30.04,ESE,116,3.0,6.0,74,0.00,,---,0.00,271.00,VWS V14.00,2013-05-24 20:48:00,
2013-05-24 15:52:00,83.3,74.2,30.04,ESE,111,2.0,6.0,74,0.00,,---,0.00,271.00,VWS V14.00,2013-05-24 20:52:00,
2013-05-24 15:56:00,83.2,74.5,30.04,ESE,109,3.0,6.0,75,0.00,,---,0.00,171.00,VWS V14.00,2013-05-24 20:56:00,
2013-05-24 16:00:00,83.0,73.9,30.03,ESE,107,1.0,6.0,74,0.00,,---,0.00,178.00,VWS V14.00,2013-05-24 21:00:00,
2013-05-24 16:04:00,82.9,73.8,30.03,ESE,107,5.0,5.0,74,0.00,,---,0.00,246.00,VWS V14.00,2013-05-24 21:04:00,
2013-05-24 16:08:00,83.0,74.3,30.03,ESE,111,2.0,5.0,75,0.00,,---,0.00,294.00,VWS V14.00,2013-05-24 21:08:00,
2013-05-24 16:12:00,83.0,73.9,30.03,ESE,112,3.0,5.0,74,0.00,,---,0.00,309.00,VWS V14.00,2013-05-24 21:12:00,
2013-05-24 16:16:00,83.1,74.0,30.02,East,85,0.0,5.0,74,0.00,,---,0.00,332.00,VWS V14.00,2013-05-24 21:16:00,
2013-05-24 16:20:00,83.2,74.1,30.02,ESE,112,0.0,5.0,74,0.00,,---,0.00,329.00,VWS V14.00,2013-05-24 21:20:00,
2013-05-24 16:24:00,83.3,73.8,30.02,ESE,107,0.0,5.0,73,0.00,,---,0.00,327.00,VWS V14.00,2013-05-24 21:24:00,
2013-05-24 16:28:00,83.3,74.2,30.02,ESE,107,0.0,5.0,74,0.00,,---,0.00,311.00,VWS V14.00,2013-05-24 21:28:00,
2013-05-24 16:30:00,83.3,74.2,30.02,East,85,0.0,5.0,74,0.00,,---,0.00,301.00,VWS V14.00,2013-05-24 21:30:00,
2013-05-24 16:32:00,83.3,74.2,30.02,East,83,0.0,0.0,74,0.00,,---,0.00,278.00,VWS V14.00,2013-05-24 21:32:00,
2013-05-24 16:36:00,83.3,74.9,30.02,East,84,0.0,0.0,76,0.00,,---,0.00,264.00,VWS V14.00,2013-05-24 21:36:00,
2013-05-24 16:40:00,83.2,74.5,30.02,East,84,1.0,2.0,75,0.00,,---,0.00,258.00,VWS V14.00,2013-05-24 21:40:00,
2013-05-24 16:44:00,83.1,74.4,30.02,East,90,1.0,6.0,75,0.00,,---,0.00,236.00,VWS V14.00,2013-05-24 21:44:00,
2013-05-24 16:48:00,83.0,74.7,30.02,ESE,110,2.0,6.0,76,0.00,,---,0.00,232.00,VWS V14.00,2013-05-24 21:48:00,
2013-05-24 16:52:00,82.9,74.6,30.02,East,92,2.0,6.0,76,0.00,,---,0.00,241.00,VWS V14.00,2013-05-24 21:52:00,
2013-05-24 16:56:00,82.9,74.6,30.02,East,91,0.0,6.0,76,0.00,,---,0.00,229.00,VWS V14.00,2013-05-24 21:56:00,
2013-05-24 17:00:00,82.9,74.2,30.02,ENE,73,1.0,6.0,75,0.00,,---,0.00,218.00,VWS V14.00,2013-05-24 22:00:00,
2013-05-24 17:04:00,82.8,74.5,30.02,East,93,1.0,4.0,76,0.00,,---,0.00,206.00,VWS V14.00,2013-05-24 22:04:00,
2013-05-24 17:08:00,82.9,74.2,30.02,East,100,2.0,4.0,75,0.00,,---,0.00,156.00,VWS V14.00,2013-05-24 22:08:00,
2013-05-24 17:12:00,82.8,73.7,30.02,ESE,114,2.0,4.0,74,0.00,,---,0.00,160.00,VWS V14.00,2013-05-24 22:12:00,
2013-05-24 17:16:00,82.8,74.1,30.02,ESE,104,2.0,4.0,75,0.00,,---,0.00,185.00,VWS V14.00,2013-05-24 22:16:00,
2013-05-24 17:20:00,82.7,74.4,30.02,East,98,0.0,4.0,76,0.00,,---,0.00,162.00,VWS V14.00,2013-05-24 22:20:00,
2013-05-24 17:24:00,82.3,74.4,30.02,ESE,108,0.0,4.0,77,0.00,,---,0.00,153.00,VWS V14.00,2013-05-24 22:24:00,
2013-05-24 17:28:00,82.0,74.1,30.02,ENE,76,2.0,4.0,77,0.00,,---,0.00,98.00,VWS V14.00,2013-05-24 22:28:00,
2013-05-24 17:30:00,82.0,74.5,30.02,East,81,1.0,4.0,78,0.00,,---,0.00,98.00,VWS V14.00,2013-05-24 22:30:00,
2013-05-24 17:32:00,81.9,74.4,30.02,ENE,73,2.0,3.0,78,0.00,,---,0.00,74.00,VWS V14.00,2013-05-24 22:32:00,
2013-05-24 17:36:00,81.8,74.3,30.02,ESE,109,1.0,3.0,78,0.00,,---,0.00,111.00,VWS V14.00,2013-05-24 22:36:00,
2013-05-24 17:41:00,81.7,74.6,30.02,East,84,1.0,3.0,79,0.00,,---,0.00,137.00,VWS V14.00,2013-05-24 22:41:00,
2013-05-24 17:45:00,81.8,74.7,30.02,East,100,1.0,3.0,79,0.00,,---,0.00,123.00,VWS V14.00,2013-05-24 22:45:00,
2013-05-24 17:49:00,81.8,73.9,30.02,East,101,1.0,5.0,77,0.00,,---,0.00,86.00,VWS V14.00,2013-05-24 22:49:00,
2013-05-24 17:53:00,82.0,74.5,30.02,ESE,108,2.0,5.0,78,0.00,,---,0.00,81.00,VWS V14.00,2013-05-24 22:53:00,
2013-05-24 17:57:00,82.0,73.7,30.02,ESE,114,3.0,5.0,76,0.00,,---,0.00,81.00,VWS V14.00,2013-05-24 22:57:00,
2013-05-24 18:00:00,82.0,74.1,30.02,ESE,113,1.0,5.0,77,0.00,,---,0.00,76.00,VWS V14.00,2013-05-24 23:00:00,
2013-05-24 18:01:00,82.0,74.1,30.02,East,101,0.0,0.0,77,0.00,,---,0.00,76.00,VWS V14.00,2013-05-24 23:01:00,
2013-05-24 18:05:00,81.6,73.7,30.02,East,81,0.0,1.0,77,0.00,,---,0.00,79.00,VWS V14.00,2013-05-24 23:05:00,
2013-05-24 18:09:00,81.4,74.3,30.02,ESE,106,1.0,2.0,79,0.00,,---,0.00,67.00,VWS V14.00,2013-05-24 23:09:00,
2013-05-24 18:13:00,81.2,74.1,30.02,ESE,107,0.0,2.0,79,0.00,,---,0.00,70.00,VWS V14.00,2013-05-24 23:13:00,
2013-05-24 18:17:00,81.0,73.5,30.03,ESE,117,3.0,3.0,78,0.00,,---,0.00,74.00,VWS V14.00,2013-05-24 23:17:00,
2013-05-24 18:21:00,81.1,74.0,30.03,East,98,1.0,4.0,79,0.00,,---,0.00,60.00,VWS V14.00,2013-05-24 23:21:00,
2013-05-24 18:25:00,81.2,73.7,30.03,East,88,1.0,4.0,78,0.00,,---,0.00,37.00,VWS V14.00,2013-05-24 23:25:00,
2013-05-24 18:29:00,81.1,74.0,30.03,ENE,78,2.0,4.0,79,0.00,,---,0.00,44.00,VWS V14.00,2013-05-24 23:29:00,
2013-05-24 18:30:00,81.1,73.2,30.03,East,91,2.0,6.0,77,0.00,,---,0.00,51.00,VWS V14.00,2013-05-24 23:30:00,
2013-05-24 18:33:00,81.1,73.6,30.03,East,81,2.0,2.0,78,0.00,,---,0.00,54.00,VWS V14.00,2013-05-24 23:33:00,
2013-05-24 18:37:00,81.0,73.5,30.03,East,101,1.0,2.0,78,0.00,,---,0.00,51.00,VWS V14.00,2013-05-24 23:37:00,
2013-05-24 18:41:00,80.9,73.4,30.03,East,96,3.0,3.0,78,0.00,,---,0.00,44.00,VWS V14.00,2013-05-24 23:41:00,
2013-05-24 18:45:00,80.8,73.3,30.03,ESE,119,3.0,3.0,78,0.00,,---,0.00,39.00,VWS V14.00,2013-05-24 23:45:00,
2013-05-24 18:49:00,80.8,73.3,30.03,ESE,110,5.0,5.0,78,0.00,,---,0.00,39.00,VWS V14.00,2013-05-24 23:49:00,
2013-05-24 18:53:00,80.9,73.0,30.03,East,98,2.0,9.0,77,0.00,,---,0.00,35.00,VWS V14.00,2013-05-24 23:53:00,
2013-05-24 18:57:00,80.9,73.0,30.03,East,88,1.0,9.0,77,0.00,,---,0.00,32.00,VWS V14.00,2013-05-24 23:57:00,
2013-05-24 19:00:00,80.9,73.4,30.03,East,101,3.0,9.0,78,0.00,,---,0.00,28.00,VWS V14.00,2013-05-25 00:00:00,
2013-05-24 19:01:00,80.8,72.9,30.03,ESE,110,4.0,4.0,77,0.00,,---,0.00,28.00,VWS V14.00,2013-05-25 00:01:00,
2013-05-24 19:05:00,80.7,73.2,30.03,SE,125,3.0,4.0,78,0.00,,---,0.00,23.00,VWS V14.00,2013-05-25 00:05:00,
2013-05-24 19:09:00,80.6,73.1,30.03,ESE,117,2.0,4.0,78,0.00,,---,0.00,21.00,VWS V14.00,2013-05-25 00:09:00,
2013-05-24 19:13:00,80.5,73.0,30.03,East,100,3.0,4.0,78,0.00,,---,0.00,18.00,VWS V14.00,2013-05-25 00:13:00,
2013-05-24 19:17:00,80.5,73.0,30.04,ESE,113,4.0,4.0,78,0.00,,---,0.00,14.00,VWS V14.00,2013-05-25 00:17:00,
2013-05-24 19:21:00,80.4,72.9,30.04,ESE,114,2.0,5.0,78,0.00,,---,0.00,12.00,VWS V14.00,2013-05-25 00:21:00,
2013-05-24 19:25:00,80.3,72.8,30.04,ESE,107,1.0,5.0,78,0.00,,---,0.00,11.00,VWS V14.00,2013-05-25 00:25:00,
2013-05-24 19:29:00,80.2,73.1,30.04,ESE,110,2.0,5.0,79,0.00,,---,0.00,9.00,VWS V14.00,2013-05-25 00:29:00,
2013-05-24 19:30:00,80.2,73.1,30.04,ESE,108,3.0,5.0,79,0.00,,---,0.00,9.00,VWS V14.00,2013-05-25 00:30:00,
2013-05-24 19:33:00,79.9,72.8,30.04,ENE,72,1.0,3.0,79,0.00,,---,0.00,7.00,VWS V14.00,2013-05-25 00:33:00,
2013-05-24 19:37:00,79.8,73.1,30.04,ESE,109,0.0,6.0,80,0.00,,---,0.00,5.00,VWS V14.00,2013-05-25 00:37:00,
2013-05-24 19:41:00,79.7,72.6,30.04,ESE,114,2.0,6.0,79,0.00,,---,0.00,0.00,VWS V14.00,2013-05-25 00:41:00,
2013-05-24 19:45:00,79.8,72.7,30.05,ESE,109,2.0,6.0,79,0.00,,---,0.00,0.00,VWS V14.00,2013-05-25 00:45:00,
2013-05-24 19:50:00,79.8,72.7,30.05,ESE,106,3.0,6.0,79,0.00,,---,0.00,0.00,VWS V14.00,2013-05-25 00:50:00,
2013-05-24 19:54:00,79.7,72.2,30.05,East,81,3.0,6.0,78,0.00,,---,0.00,0.00,VWS V14.00,2013-05-25 00:54:00,
2013-05-24 19:58:00,79.7,72.6,30.05,East,86,1.0,6.0,79,0.00,,---,0.00,0.00,VWS V14.00,2013-05-25 00:58:00,
2013-05-24 20:00:00,79.6,72.5,30.05,ESE,113,4.0,6.0,79,0.00,,---,0.00,0.00,VWS V14.00,2013-05-25 01:00:00,
2013-05-24 20:02:00,79.6,72.1,30.05,ESE,109,4.0,4.0,78,0.00,,---,0.00,0.00,VWS V14.00,2013-05-25 01:02:00,
2013-05-24 20:06:00,79.6,72.1,30.05,ESE,109,3.0,4.0,78,0.00,,---,0.00,0.00,VWS V14.00,2013-05-25 01:06:00,
2013-05-24 20:10:00,79.5,72.0,30.05,ESE,106,1.0,5.0,78,0.00,,---,0.00,0.00,VWS V14.00,2013-05-25 01:10:00,
2013-05-24 20:14:00,79.4,72.3,30.05,East,94,1.0,5.0,79,0.00,,---,0.00,0.00,VWS V14.00,2013-05-25 01:14:00,
2013-05-24 20:18:00,79.3,72.6,30.05,ENE,77,1.0,5.0,80,0.00,,---,0.00,0.00,VWS V14.00,2013-05-25 01:18:00,
2013-05-24 20:22:00,79.1,72.0,30.05,East,85,1.0,5.0,79,0.00,,---,0.00,0.00,VWS V14.00,2013-05-25 01:22:00,
2013-05-24 20:26:00,79.0,72.3,30.05,ESE,104,1.0,5.0,80,0.00,,---,0.00,0.00,VWS V14.00,2013-05-25 01:26:00,
2013-05-24 20:30:00,78.9,72.6,30.05,ESE,105,1.0,5.0,81,0.00,,---,0.00,0.00,VWS V14.00,2013-05-25 01:30:00,
2013-05-24 20:34:00,78.7,72.0,30.05,East,93,2.0,2.0,80,0.00,,---,0.00,0.00,VWS V14.00,2013-05-25 01:34:00,
2013-05-24 20:38:00,78.6,72.3,30.05,East,85,0.0,3.0,81,0.00,,---,0.00,0.00,VWS V14.00,2013-05-25 01:38:00,
2013-05-24 20:42:00,78.5,72.2,30.05,ESE,109,1.0,4.0,81,0.00,,---,0.00,0.00,VWS V14.00,2013-05-25 01:42:00,
2013-05-24 20:46:00,78.4,72.1,30.05,ESE,107,0.0,4.0,81,0.00,,---,0.00,0.00,VWS V14.00,2013-05-25 01:46:00,
2013-05-24 20:50:00,78.4,72.1,30.05,East,99,0.0,4.0,81,0.00,,---,0.00,0.00,VWS V14.00,2013-05-25 01:50:00,
2013-05-24 20:54:00,78.4,72.1,30.05,ESE,111,0.0,4.0,81,0.00,,---,0.00,0.00,VWS V14.00,2013-05-25 01:54:00,
2013-05-24 20:58:00,78.4,71.7,30.05,ESE,115,5.0,5.0,80,0.00,,---,0.00,0.00,VWS V14.00,2013-05-25 01:58:00,
2013-05-24 21:00:00,78.5,71.8,30.07,ESE,120,4.0,6.0,80,0.00,,---,0.00,0.00,VWS V14.00,2013-05-25 02:00:00,
2013-05-24 21:02:00,78.5,71.8,30.07,ESE,107,3.0,4.0,80,0.00,,---,0.00,0.00,VWS V14.00,2013-05-25 02:02:00,
2013-05-24 21:06:00,78.5,71.8,30.07,SE,127,2.0,7.0,80,0.00,,---,0.00,0.00,VWS V14.00,2013-05-25 02:06:00,
2013-05-24 21:10:00,78.2,69.6,30.07,SSE,147,8.0,15.0,75,0.00,,---,0.00,0.00,VWS V14.00,2013-05-25 02:10:00,
2013-05-24 21:14:00,77.5,69.0,30.07,ESE,122,3.0,15.0,75,0.00,,---,0.00,0.00,VWS V14.00,2013-05-25 02:14:00,
2013-05-24 21:18:00,77.1,68.6,30.07,SE,146,6.0,15.0,75,0.00,,---,0.00,0.00,VWS V14.00,2013-05-25 02:18:00,
2013-05-24 21:22:00,76.7,67.4,30.07,SE,144,5.0,15.0,73,0.00,,---,0.00,0.00,VWS V14.00,2013-05-25 02:22:00,
2013-05-24 21:26:00,76.4,67.5,30.07,East,86,0.0,15.0,74,0.00,,---,0.00,0.00,VWS V14.00,2013-05-25 02:26:00,
2013-05-24 21:30:00,76.2,67.3,30.07,East,91,0.0,15.0,74,0.00,,---,0.00,0.00,VWS V14.00,2013-05-25 02:30:00,
2013-05-24 21:34:00,76.1,66.8,30.07,ENE,73,3.0,3.0,73,0.00,,---,0.00,0.00,VWS V14.00,2013-05-25 02:34:00,
2013-05-24 21:38:00,76.0,67.5,30.07,SSE,159,1.0,7.0,75,0.00,,---,0.00,0.00,VWS V14.00,2013-05-25 02:38:00,
2013-05-24 21:42:00,75.6,67.5,30.07,SE,129,4.0,7.0,76,0.00,,---,0.00,0.00,VWS V14.00,2013-05-25 02:42:00,
2013-05-24 21:46:00,75.0,67.7,30.10,SE,142,0.0,7.0,78,0.00,,---,0.00,0.00,VWS V14.00,2013-05-25 02:46:00,
2013-05-24 21:50:00,74.5,67.9,30.10,SSE,150,3.0,7.0,80,0.00,,---,0.00,0.00,VWS V14.00,2013-05-25 02:50:00,
2013-05-24 21:54:00,74.1,68.6,30.10,SSE,150,1.0,7.0,83,0.00,,---,0.00,0.00,VWS V14.00,2013-05-25 02:54:00,
2013-05-24 21:59:00,73.9,68.4,30.10,SSE,152,2.0,7.0,83,0.00,,---,0.00,0.00,VWS V14.00,2013-05-25 02:59:00,
2013-05-24 22:00:00,73.8,68.7,30.10,SSE,152,0.0,7.0,84,0.00,,---,0.00,0.00,VWS V14.00,2013-05-25 03:00:00,
2013-05-24 22:03:00,73.6,68.1,30.10,SSE,152,0.0,0.0,83,0.00,,---,0.00,0.00,VWS V14.00,2013-05-25 03:03:00,
2013-05-24 22:07:00,73.6,68.5,30.10,SSE,153,0.0,0.0,84,0.00,,---,0.00,0.00,VWS V14.00,2013-05-25 03:07:00,
2013-05-24 22:11:00,73.5,68.7,30.10,SSE,153,0.0,0.0,85,0.00,,---,0.00,0.00,VWS V14.00,2013-05-25 03:11:00,
2013-05-24 22:15:00,73.5,69.1,30.10,SSE,153,0.0,0.0,86,0.00,,---,0.00,0.00,VWS V14.00,2013-05-25 03:15:00,
2013-05-24 22:19:00,73.6,68.8,30.10,SE,141,4.0,4.0,85,0.00,,---,0.00,0.00,VWS V14.00,2013-05-25 03:19:00,
2013-05-24 22:23:00,73.5,68.7,30.10,SE,130,3.0,4.0,85,0.00,,---,0.00,0.00,VWS V14.00,2013-05-25 03:23:00,
2013-05-24 22:27:00,73.4,68.6,30.10,SE,134,1.0,4.0,85,0.00,,---,0.00,0.00,VWS V14.00,2013-05-25 03:27:00,
2013-05-24 22:30:00,73.4,68.6,30.11,SE,135,0.0,4.0,85,0.00,,---,0.00,0.00,VWS V14.00,2013-05-25 03:30:00,
2013-05-24 22:31:00,73.5,68.7,30.11,SE,135,0.0,0.0,85,0.00,,---,0.00,0.00,VWS V14.00,2013-05-25 03:31:00,
2013-05-24 22:35:00,73.3,68.9,30.11,SE,135,0.0,0.0,86,0.00,,---,0.00,0.00,VWS V14.00,2013-05-25 03:35:00,
2013-05-24 22:39:00,73.0,68.9,30.11,SE,130,0.0,1.0,87,0.00,,---,0.00,0.00,VWS V14.00,2013-05-25 03:39:00,
2013-05-24 22:43:00,72.7,68.9,30.11,SE,130,0.0,1.0,88,0.00,,---,0.00,0.00,VWS V14.00,2013-05-25 03:43:00,
2013-05-24 22:47:00,72.2,68.8,30.11,SE,130,0.0,1.0,89,0.00,,---,0.00,0.00,VWS V14.00,2013-05-25 03:47:00,
2013-05-24 22:51:00,72.0,68.9,30.11,South,174,2.0,2.0,90,0.00,,---,0.00,0.00,VWS V14.00,2013-05-25 03:51:00,
2013-05-24 22:55:00,71.9,68.8,30.11,South,174,0.0,2.0,90,0.00,,---,0.00,0.00,VWS V14.00,2013-05-25 03:55:00,
2013-05-24 22:59:00,72.0,68.6,30.10,South,174,0.0,2.0,89,0.00,,---,0.00,0.00,VWS V14.00,2013-05-25 03:59:00,
2013-05-24 23:00:00,72.1,68.7,30.10,South,174,0.0,2.0,89,0.00,,---,0.00,0.00,VWS V14.00,2013-05-25 04:00:00,
2013-05-24 23:03:00,72.4,68.7,30.10,South,174,0.0,0.0,88,0.00,,---,0.00,0.00,VWS V14.00,2013-05-25 04:03:00,
2013-05-24 23:07:00,72.4,69.0,30.10,South,174,0.0,0.0,89,0.00,,---,0.00,0.00,VWS V14.00,2013-05-25 04:07:00,
2013-05-24 23:11:00,72.2,69.1,30.10,South,174,0.0,0.0,90,0.00,,---,0.00,0.00,VWS V14.00,2013-05-25 04:11:00,
2013-05-24 23:15:00,72.0,69.2,30.11,South,174,0.0,0.0,91,0.00,,---,0.00,0.00,VWS V14.00,2013-05-25 04:15:00,
2013-05-24 23:19:00,71.8,69.0,30.11,South,174,0.0,0.0,91,0.00,,---,0.00,0.00,VWS V14.00,2013-05-25 04:19:00,
2013-05-24 23:23:00,71.7,68.9,30.11,South,174,0.0,0.0,91,0.00,,---,0.00,0.00,VWS V14.00,2013-05-25 04:23:00,
2013-05-24 23:27:00,71.7,69.3,30.11,South,174,0.0,0.0,92,0.00,,---,0.00,0.00,VWS V14.00,2013-05-25 04:27:00,
2013-05-24 23:30:00,71.8,69.3,30.12,WSW,246,0.0,2.0,92,0.00,,---,0.00,0.00,VWS V14.00,2013-05-25 04:30:00,
2013-05-24 23:31:00,71.8,69.0,30.12,WSW,246,0.0,0.0,91,0.00,,---,0.00,0.00,VWS V14.00,2013-05-25 04:31:00,
2013-05-24 23:35:00,71.7,68.6,30.12,WSW,249,0.0,4.0,90,0.00,,---,0.00,0.00,VWS V14.00,2013-05-25 04:35:00,
2013-05-24 23:39:00,71.8,68.4,30.12,WSW,239,0.0,4.0,89,0.00,,---,0.00,0.00,VWS V14.00,2013-05-25 04:39:00,
2013-05-24 23:43:00,72.0,68.3,30.12,WSW,246,0.0,5.0,88,0.00,,---,0.00,0.00,VWS V14.00,2013-05-25 04:43:00,
2013-05-24 23:47:00,72.1,68.3,30.13,West,271,1.0,5.0,88,0.00,,---,0.00,0.00,VWS V14.00,2013-05-25 04:47:00,
2013-05-24 23:51:00,72.2,68.4,30.13,WSW,241,0.0,5.0,88,0.00,,---,0.00,0.00,VWS V14.00,2013-05-25 04:51:00,
2013-05-24 23:55:00,72.2,68.4,30.13,WSW,243,0.0,5.0,88,0.00,,---,0.00,0.00,VWS V14.00,2013-05-25 04:55:00,
2013-05-24 23:59:00,72.1,68.3,30.12,WSW,247,0.0,5.0,88,0.00,,---,0.00,0.00,VWS V14.00,2013-05-25 04:59:00,